Theta_e
288 288 288 288 288 288 288 288 287 287 287 287 287 287 287 287 286 286 286 286 286 286 286 286 286 286 286 285 285 285 285 285 285 285 285 286 286 286 287 287 287 286 286 286 286 286 288 289 291 291 292 292 292 293 293 293 293 292 292 292 292 292 291 289 289 290 291 291 292 292 293 293 294 294 294 295 295 295 295 295 295 294 292 292 291
288 288 288 288 288 287 287 287 287 287 287 287 287 287 286 286 286 286 286 285 285 285 285 285 285 285 285 284 284 284 284 284 284 284 284 284 285 285 285 286 286 286 286 286 286 285 285 286 287 289 290 291 291 292 292 292 292 292 292 292 291 291 291 290 289 289 290 291 291 291 292 292 293 293 294 294 295 295 295 295 294 294 294 293 292
288 288 288 288 287 287 287 287 287 287 287 286 286 286 286 285 285 285 285 285 285 284 284 284 284 284 284 283 283 283 283 284 283 284 284 284 284 284 284 284 285 285 285 286 286 286 285 285 285 286 287 289 290 290 291 291 292 292 292 292 291 291 291 290 289 289 289 290 291 291 291 292 292 292 293 293 294 294 294 294 294 294 294 293 292
288 288 288 288 287 287 287 287 287 286 286 286 286 285 285 284 284 284 283 284 284 284 284 283 283 283 283 283 283 283 283 283 283 283 283 283 283 283 283 284 284 284 284 285 285 286 286 286 285 285 286 287 288 289 290 290 291 291 291 291 291 291 291 290 290 289 289 289 290 290 291 291 291 292 292 292 293 293 293 293 292 292 292 292 292
288 288 288 287 287 286 286 286 286 285 285 285 284 284 284 283 283 283 282 283 283 283 283 283 282 282 282 282 282 282 283 283 283 283 283 283 283 283 283 283 283 283 284 284 284 285 285 285 285 285 285 286 286 287 288 289 289 290 290 290 290 290 290 290 290 289 288 288 289 289 290 290 290 291 291 291 291 291 291 291 291 290 290 290 290
288 288 288 287 286 286 285 285 285 284 284 283 283 282 282 282 282 281 281 282 282 281 281 281 281 281 281 282 282 282 282 282 282 282 282 283 283 283 283 283 283 283 283 283 283 284 284 285 285 285 285 285 286 285 286 287 288 289 289 290 290 290 290 290 290 289 289 288 288 288 289 289 289 290 290 291 290 290 290 290 290 289 289 289 289
287 287 286 286 285 285 284 284 283 283 282 282 282 281 281 281 280 280 280 280 280 280 279 279 280 280 280 280 280 281 281 281 282 282 282 282 282 282 282 282 282 282 282 282 283 283 284 284 284 285 285 285 285 285 285 286 287 287 288 289 289 289 289 289 289 289 289 288 288 288 288 288 289 289 290 290 290 289 289 288 288 288 288 288 289
286 286 285 285 285 285 284 283 282 281 281 281 280 280 280 279 279 279 278 278 278 278 278 278 278 278 278 279 279 279 280 280 280 281 281 281 281 282 282 282 282 282 282 282 283 283 283 283 284 284 285 285 285 285 285 285 286 286 287 287 288 288 288 289 289 289 289 288 288 288 288 288 288 288 288 288 288 288 287 287 287 287 287 287 288
285 285 284 284 283 282 281 281 280 279 279 279 278 278 278 277 277 276 276 276 276 276 276 276 276 276 277 277 277 278 278 279 279 280 280 280 281 281 281 282 282 282 282 282 283 283 283 283 283 283 284 284 285 285 285 285 285 286 286 286 287 288 288 288 288 288 288 288 288 288 288 288 288 287 286 286 287 287 287 287 287 287 287 287 287
283 283 282 282 281 280 280 279 279 278 278 278 277 277 276 276 275 275 275 275 274 274 274 274 275 275 275 275 276 276 277 277 278 279 279 280 280 281 281 281 282 282 282 282 282 282 283 283 283 283 284 284 284 284 284 285 285 285 286 286 286 287 287 287 288 288 288 288 288 288 288 288 288 287 286 286 287 287 287 287 287 287 286 286 286
282 281 281 280 280 280 280 280 279 279 278 278 277 277 276 276 275 275 275 274 274 273 273 273 273 273 273 273 273 274 274 275 276 277 277 278 279 279 280 280 280 281 281 281 281 281 282 282 282 283 283 283 284 284 284 284 284 285 285 285 286 287 287 287 287 287 288 288 288 288 288 288 289 288 288 287 286 286 287 286 286 286 286 285 286
281 280 279 279 278 278 278 278 278 277 277 276 276 276 275 275 275 275 274 274 273 273 272 271 271 270 270 270 270 270 271 272 273 274 274 275 276 277 277 278 278 279 279 280 280 281 281 281 282 282 282 283 283 283 283 284 284 284 284 285 285 286 287 287 287 287 287 287 287 288 288 288 288 288 288 288 286 286 286 286 286 286 286 286 286
279 278 277 277 276 276 276 275 275 275 274 274 274 274 274 274 273 273 273 272 272 272 271 270 269 268 268 268 268 268 268 269 270 271 272 273 274 275 276 276 277 277 278 278 278 279 279 280 280 281 281 282 282 283 283 283 283 283 284 284 284 285 285 286 287 287 288 288 287 287 288 288 288 288 288 288 287 286 286 286 286 286 286 286 286
277 276 275 275 274 274 273 273 273 273 272 272 272 272 272 271 271 271 270 270 269 269 268 268 267 266 266 265 266 266 265 266 268 270 271 272 272 273 274 274 275 275 276 276 277 278 278 279 279 280 280 281 281 282 282 282 283 283 283 283 284 284 284 285 286 287 288 288 288 288 288 288 288 288 288 288 288 287 286 286 286 286 286 286 287
275 274 273 272 272 272 272 271 271 271 271 271 270 270 269 268 268 268 267 267 266 265 265 265 264 264 264 264 264 264 264 265 267 268 269 270 270 271 272 272 272 273 273 274 275 275 276 277 277 278 278 279 279 280 280 281 281 282 282 283 283 283 284 284 285 285 286 287 288 288 288 288 288 288 288 288 288 288 287 287 286 286 286 286 286
273 272 271 271 271 270 270 269 269 269 269 268 268 268 267 266 266 266 265 265 264 264 263 263 263 263 263 263 263 263 263 264 265 266 267 268 269 270 270 270 270 271 271 271 272 272 273 274 275 276 277 278 278 279 280 281 281 282 283 283 283 283 283 284 284 284 285 285 286 287 287 287 287 288 288 288 288 288 288 287 286 286 286 285 285
271 270 270 270 269 269 268 268 267 267 267 266 266 266 265 265 265 264 264 263 263 263 263 262 262 262 262 262 262 262 263 263 264 266 266 268 269 269 269 269 270 270 270 271 271 271 272 273 273 274 275 276 277 278 279 280 280 281 281 282 283 284 284 284 284 284 284 284 285 285 286 286 287 287 288 288 288 289 288 286 285 285 285 285 285
269 269 269 268 268 268 267 266 266 265 265 265 265 264 264 264 264 263 263 262 262 262 262 262 262 262 262 262 262 262 262 263 264 265 266 267 268 268 269 269 269 269 270 270 270 271 272 272 273 274 274 275 275 276 277 278 279 279 280 280 281 282 282 283 283 283 284 284 284 285 285 285 286 287 287 288 288 289 288 287 286 286 285 285 285
268 267 267 267 267 267 266 266 265 265 264 264 264 263 263 263 263 262 262 262 262 261 261 261 261 261 261 261 262 262 262 262 263 264 265 267 268 268 268 269 269 269 269 270 270 270 271 271 272 273 273 274 275 275 276 277 278 279 279 280 280 281 282 282 283 283 283 283 284 284 284 285 286 286 287 287 288 288 289 288 287 286 285 285 285
266 266 266 266 267 267 266 265 265 264 264 264 263 263 262 262 262 261 261 261 261 261 261 261 261 261 261 261 261 262 262 262 262 264 265 266 267 268 268 269 269 269 269 269 269 270 270 270 271 271 272 273 274 275 275 276 277 277 277 278 279 279 280 281 282 283 283 284 284 284 284 285 285 285 286 286 287 288 288 289 288 287 286 286 285
266 265 266 266 266 266 265 264 264 264 263 263 262 262 262 261 261 261 261 261 260 260 260 260 260 261 261 261 261 261 262 262 262 263 265 266 267 268 268 268 269 269 269 269 269 270 270 270 270 271 271 272 273 274 274 275 276 276 277 277 277 278 278 279 280 281 283 284 284 284 284 284 285 285 285 286 286 287 287 288 288 288 287 286 286
265 265 265 266 265 265 264 264 263 263 263 262 262 262 261 261 261 261 260 260 260 260 260 260 260 260 261 261 261 261 262 262 263 264 265 266 267 268 268 269 269 269 269 270 270 270 270 270 270 270 270 271 272 272 273 274 274 275 276 277 277 278 278 279 279 279 280 282 283 284 284 284 284 284 285 285 285 286 286 287 288 288 287 287 286
264 265 265 265 265 264 264 263 263 263 262 262 261 261 261 261 261 260 260 260 260 260 260 260 260 260 260 261 261 262 262 263 263 264 265 266 267 268 269 269 270 270 270 270 270 270 270 270 270 270 270 271 271 272 273 273 274 274 275 276 277 277 278 279 279 279 280 280 281 283 284 284 284 284 284 284 285 285 286 286 287 287 287 287 287
263 264 264 264 264 263 263 262 263 262 262 262 261 261 261 261 260 260 260 260 260 260 260 260 260 260 260 261 261 262 263 263 264 264 265 266 267 268 269 269 270 270 270 270 270 270 270 270 270 271 271 272 272 273 273 273 274 274 274 275 276 276 277 278 278 279 280 281 281 283 284 284 284 284 284 284 285 285 285 285 286 286 287 287 287
263 264 264 263 263 262 262 262 262 262 261 261 261 261 261 260 260 260 260 260 260 260 260 260 260 260 260 261 261 262 263 264 264 265 265 266 267 268 268 269 270 270 271 271 270 270 271 271 272 272 272 272 272 273 272 272 273 273 274 274 275 275 276 277 277 278 280 281 282 283 284 284 284 284 284 284 284 284 285 285 285 285 286 286 286
262 263 263 262 262 262 261 262 261 261 261 261 261 261 261 260 260 260 260 260 260 260 259 260 260 260 261 261 262 263 264 265 265 266 266 266 267 267 268 268 269 270 270 270 270 271 271 271 272 272 272 272 272 272 272 272 273 273 274 274 275 275 275 276 276 277 278 279 281 282 284 285 285 285 285 284 284 284 284 284 284 285 285 285 286
262 262 262 262 261 261 261 261 261 260 260 260 260 260 260 260 260 260 260 260 260 260 260 260 261 261 262 263 264 265 265 266 266 267 267 267 267 268 268 268 269 269 269 269 270 270 270 271 271 271 271 272 272 272 272 273 273 273 274 274 274 274 274 275 276 276 278 279 280 280 282 284 285 285 285 284 284 284 284 284 284 284 284 285 285
261 261 261 261 261 261 260 260 260 260 260 260 260 260 260 260 260 260 260 261 260 260 261 261 262 263 264 265 266 267 267 267 267 268 268 269 269 270 270 270 270 270 269 270 270 270 270 270 270 270 271 271 271 272 272 273 273 273 273 273 274 274 274 275 276 276 277 279 280 280 281 283 285 285 284 284 284 284 284 284 284 284 284 284 284
261 261 261 261 260 260 260 260 260 260 259 260 260 260 260 260 260 261 262 262 262 262 263 264 265 266 266 267 268 268 268 268 268 269 270 271 271 272 272 272 272 272 272 272 272 272 272 271 271 271 271 271 272 272 273 273 273 273 273 274 274 274 274 275 276 276 277 278 280 281 281 283 284 285 284 284 284 284 284 284 284 284 284 283 283
260 261 261 260 260 260 260 260 259 259 259 259 259 260 260 261 261 262 262 263 264 264 265 266 267 268 268 268 268 268 268 269 269 270 271 271 272 272 272 272 273 273 273 273 273 273 273 273 273 273 273 273 273 273 273 273 273 273 274 274 274 274 274 275 275 276 277 278 279 281 282 282 283 284 284 284 284 284 284 283 283 283 283 282 282
260 260 260 260 260 259 259 259 259 259 259 259 259 259 259 261 262 262 262 263 264 265 266 267 267 268 268 268 268 268 268 269 270 270 271 271 272 272 272 273 273 273 273 273 273 273 273 273 272 272 272 272 272 272 273 273 273 273 273 273 274 274 274 275 275 276 276 277 279 280 282 283 283 284 284 284 284 284 283 283 283 283 282 282 282
259 259 260 260 259 259 259 259 259 259 259 259 259 259 259 259 261 262 262 262 263 264 265 266 266 267 267 267 268 268 268 269 270 270 271 271 271 272 272 272 273 273 273 273 272 271 271 271 271 271 271 271 271 271 272 272 272 272 273 273 274 274 274 275 275 275 276 276 278 279 281 282 283 284 284 284 284 283 283 282 282 282 282 282 281
259 259 259 259 259 258 258 258 258 258 259 258 258 259 259 259 259 260 261 261 262 263 263 264 265 265 266 266 267 267 268 268 269 269 270 271 271 272 272 272 273 273 272 271 270 270 270 270 270 270 270 271 271 271 272 272 272 272 273 273 273 274 274 274 275 275 276 276 277 278 280 281 282 282 283 283 283 283 282 282 282 282 282 281 281
260 259 259 258 258 258 258 258 258 258 258 258 258 259 259 259 259 260 260 260 262 263 263 262 263 263 264 265 266 266 267 268 268 269 270 270 271 271 271 271 271 270 270 269 269 269 269 269 270 270 271 271 271 272 272 272 273 273 273 273 274 274 274 274 275 275 276 276 277 278 279 281 282 282 282 283 282 282 282 281 281 281 281 281 280
260 260 259 258 258 258 258 258 258 258 258 258 259 259 259 259 259 259 260 260 260 261 261 261 262 262 263 264 265 265 266 266 267 268 269 269 269 269 269 268 268 268 268 269 269 269 269 270 270 270 271 271 271 272 272 273 273 273 274 274 274 274 274 275 275 275 276 276 277 278 279 280 281 281 282 282 282 281 281 280 280 280 280 280 280
260 259 258 258 257 258 258 258 258 258 258 259 259 259 259 259 259 259 260 260 260 260 260 261 261 261 262 263 263 264 264 266 267 268 267 267 266 266 265 266 267 267 267 267 268 268 268 269 269 270 270 270 270 271 272 272 273 274 274 275 275 275 275 275 275 275 276 276 277 278 278 279 279 280 281 282 281 281 281 280 279 279 280 279 279
259 259 258 258 257 257 258 258 258 258 258 258 258 258 258 259 259 259 259 259 260 260 260 260 260 261 261 262 262 262 264 265 266 265 264 263 263 263 263 264 264 265 265 265 265 265 266 266 267 267 268 268 268 269 271 272 272 273 275 275 275 275 275 275 276 276 276 277 277 278 278 278 279 280 280 281 281 280 280 280 279 279 279 279 279
259 258 258 258 257 257 258 258 258 258 258 258 258 258 258 258 258 259 259 259 259 259 259 260 260 260 261 261 261 262 264 264 264 262 261 261 261 261 261 262 263 263 263 263 263 263 264 264 264 265 265 266 267 268 270 270 271 272 274 276 276 276 276 276 277 277 277 278 278 278 278 279 279 280 280 280 280 280 280 279 279 278 278 278 278
259 259 258 258 257 257 258 257 257 257 257 257 258 258 258 258 258 258 259 259 259 259 259 259 260 260 260 261 261 263 264 263 262 261 260 260 261 260 261 261 261 262 262 261 261 262 262 262 263 263 264 265 266 267 268 269 270 271 272 274 276 276 277 277 277 277 278 278 278 278 279 279 280 280 280 280 280 280 279 279 278 278 277 277 277
259 259 259 258 257 257 257 257 257 257 257 257 257 257 257 258 258 258 258 258 258 259 259 259 259 260 260 261 262 264 264 262 260 260 260 260 260 260 260 260 260 260 260 260 260 261 261 261 262 262 263 264 265 266 267 267 268 269 270 272 274 275 276 277 278 278 278 279 279 279 279 279 280 280 280 280 280 279 279 278 278 277 277 276 276
259 259 259 258 258 257 257 257 257 257 257 257 257 257 257 257 258 258 258 258 258 258 259 259 259 260 260 261 263 264 263 261 260 260 260 260 260 260 260 260 260 260 260 260 260 260 260 261 261 262 262 263 263 264 265 266 267 267 268 270 272 273 274 275 275 276 277 278 279 279 279 280 280 280 279 279 279 279 279 278 277 277 276 276 276
259 259 259 258 258 258 257 257 257 257 257 257 257 257 257 257 257 257 257 257 258 258 258 259 259 260 260 261 262 262 261 260 260 260 260 260 260 260 260 260 260 260 260 260 260 260 261 261 261 261 262 262 263 263 264 265 266 266 267 268 270 271 272 272 273 274 275 276 277 277 278 278 279 279 278 278 278 278 277 277 276 275 275 275 274
259 259 259 259 258 258 257 256 257 256 256 256 256 257 257 257 257 257 257 257 258 258 258 259 259 259 260 260 261 261 260 260 260 260 260 260 260 260 260 260 260 260 261 261 261 261 261 261 262 262 262 263 263 264 264 265 265 266 266 267 268 269 270 271 272 272 273 274 275 275 276 276 276 276 276 276 276 276 275 275 274 274 274 273 273
260 259 259 259 259 258 257 257 256 256 256 256 256 257 257 257 257 257 257 257 257 258 258 258 259 259 259 260 260 260 260 260 260 260 260 260 260 260 260 260 260 261 261 261 262 262 262 262 262 263 263 264 264 264 265 265 266 266 267 267 268 269 269 270 270 271 272 273 273 274 274 274 274 274 274 274 274 273 273 273 273 272 272 272 272
260 260 260 259 259 258 258 257 257 256 256 256 256 257 257 257 257 257 257 257 257 258 258 258 258 258 259 259 259 259 259 259 259 260 260 260 260 260 260 260 260 261 261 262 262 262 263 263 263 263 264 264 265 265 265 265 266 266 267 267 268 268 269 269 269 270 271 272 272 272 272 272 272 272 272 272 272 272 272 272 271 271 271 271 271
260 260 259 259 259 258 258 258 257 257 257 256 256 257 257 257 257 257 257 257 257 257 258 258 258 258 258 259 259 259 259 259 259 259 259 259 260 260 260 260 261 261 262 262 263 263 263 263 263 264 264 265 265 265 265 265 266 266 266 267 267 268 268 269 269 270 270 271 271 271 271 271 271 271 271 271 271 271 271 271 271 271 271 270 270
260 260 259 259 259 258 258 258 258 258 257 257 256 256 256 257 257 257 257 257 257 257 258 258 258 258 258 258 258 258 259 259 259 259 259 260 260 260 260 261 261 261 262 262 263 263 263 263 264 264 264 265 265 265 266 266 266 266 266 267 267 268 268 269 269 269 270 270 270 270 270 270 270 270 270 270 270 270 270 270 270 270 270 270 270
260 260 260 259 259 259 258 258 258 258 257 257 257 256 256 257 257 257 257 257 257 258 258 258 258 258 258 259 259 259 259 259 259 259 260 260 261 261 261 261 261 261 262 262 263 263 263 263 264 264 264 265 265 266 266 266 266 266 266 266 267 267 268 268 269 269 269 269 270 270 270 269 269 269 269 269 269 269 269 269 269 269 270 270 270
260 260 260 260 259 259 258 258 258 258 257 257 257 257 257 257 257 257 257 257 258 258 258 258 258 259 259 259 259 259 259 259 259 260 260 261 261 262 262 262 262 262 262 262 263 263 263 263 263 264 264 265 265 266 266 267 267 267 266 266 267 267 268 268 268 268 269 269 269 269 269 269 269 269 269 269 268 269 269 269 269 269 269 270 270
260 260 260 260 259 259 259 259 258 258 258 257 257 257 257 257 257 257 258 258 258 259 259 259 259 259 259 259 259 259 260 260 260 260 260 261 261 262 262 263 263 263 263 263 263 263 263 263 263 263 264 264 265 265 266 266 267 267 267 266 266 267 267 267 268 268 268 268 268 268 268 268 268 268 268 268 268 268 268 268 268 269 269 269 269
260 260 260 260 259 259 259 259 259 259 258 258 257 257 257 257 257 258 258 258 258 259 259 259 259 259 259 259 259 259 260 260 260 260 260 261 261 262 262 262 263 263 263 263 263 263 263 263 263 263 264 264 265 265 265 266 266 267 267 267 267 267 267 267 267 267 267 268 268 268 268 268 267 267 267 267 267 268 268 268 268 268 268 268 268
Wind_Speed
11 12 12 12 12 13 13 13 15 17 18 19 20 22 23 25 27 28 28 28 28 29 30 30 31 32 32 32 32 32 32 32 31 30 28 27 26 26 26 27 27 28 28 28 27 26 26 27 28 28 27 28 29 28 28 27 27 27 27 27 30 30 29 26 18 16 21 25 26 25 26 27 31 34 36 38 39 39 41 42 43 44 46 46 46
7 8 8 9 9 11 12 12 12 14 16 17 19 21 23 25 26 28 29 29 28 29 30 30 31 31 31 32 32 33 33 33 33 32 31 31 30 29 29 28 28 28 28 29 30 29 29 28 28 28 27 28 29 29 29 29 28 28 28 27 29 30 29 29 25 19 20 25 27 27 27 28 31 34 35 37 39 39 41 43 44 45 46 47 48
4 5 6 7 7 9 11 11 11 14 15 16 19 21 23 25 25 26 27 27 27 28 28 29 30 31 31 32 33 33 34 34 34 34 33 32 32 32 31 30 29 29 29 29 30 30 31 31 30 29 27 27 28 28 29 29 29 30 30 29 29 30 29 30 29 24 22 24 26 28 28 29 32 34 33 36 38 39 42 44 44 45 46 47 48
3 4 4 5 6 8 9 9 10 13 14 16 19 22 24 25 25 25 25 25 25 26 27 28 29 30 31 32 33 33 34 35 35 35 34 33 33 33 33 32 31 31 30 30 30 30 31 33 33 32 29 27 28 28 28 29 30 30 31 31 30 31 30 30 32 30 26 24 25 26 27 29 33 34 33 34 36 39 42 43 43 44 46 46 48
5 6 6 6 6 6 7 7 9 12 13 16 19 21 24 25 25 26 26 26 26 26 27 28 28 29 29 30 31 33 34 34 35 36 35 34 34 34 34 33 33 33 33 32 32 31 31 33 34 34 32 30 29 29 28 28 29 30 31 32 31 31 30 30 32 32 30 28 27 25 26 28 31 32 33 33 34 36 39 42 42 42 43 44 45
7 7 7 6 5 7 9 11 14 16 18 20 22 24 25 26 26 27 26 27 28 29 30 31 31 31 31 31 30 31 32 33 34 35 35 35 35 35 34 34 33 34 34 34 34 33 33 33 34 34 34 33 32 31 30 29 29 29 30 31 31 30 30 30 31 31 31 32 29 26 25 27 29 31 33 33 33 34 36 38 40 41 40 41 43
4 4 4 6 8 12 15 18 20 21 22 24 25 26 27 28 28 29 28 29 30 31 31 32 33 33 34 34 33 33 33 33 33 33 33 33 33 34 35 35 36 36 36 35 35 35 35 35 35 35 35 35 35 34 33 31 31 30 31 31 30 29 29 30 29 29 30 30 28 27 26 26 28 30 32 33 34 35 34 31 31 36 39 40 42
5 7 8 11 15 18 21 22 22 23 24 25 26 27 27 28 29 30 31 32 32 32 32 33 34 34 34 34 34 34 34 35 35 33 32 32 31 32 34 35 36 37 37 37 37 36 36 37 37 37 36 36 36 36 35 34 33 33 32 31 30 29 29 29 28 27 28 27 26 26 25 24 25 27 28 27 28 31 31 27 27 32 35 38 41
10 12 14 17 19 21 22 23 23 23 24 25 26 27 28 29 30 31 31 32 32 33 33 33 33 34 34 34 34 33 33 34 34 32 32 33 33 33 33 34 34 35 36 37 38 38 38 38 38 38 38 38 37 37 36 36 35 36 36 33 31 30 29 28 27 26 26 25 25 25 22 22 23 24 24 25 28 30 30 29 31 31 29 31 38
14 16 18 20 21 22 23 24 24 25 26 27 28 29 30 31 32 32 32 31 31 31 31 31 31 31 32 32 32 32 32 32 32 30 30 32 33 34 34 34 35 35 35 36 37 38 38 39 39 39 39 38 39 38 38 38 38 39 39 38 35 33 31 29 28 27 25 23 24 24 19 19 24 24 23 28 31 30 28 29 31 29 24 23 30
17 19 21 21 22 23 24 25 26 27 28 29 30 32 33 33 34 34 34 34 33 32 31 31 31 30 30 31 32 32 32 32 30 31 31 31 32 33 34 35 35 36 37 37 38 39 39 39 39 39 39 38 39 39 40 40 40 40 41 41 40 38 35 32 30 29 26 24 25 25 20 21 27 26 24 27 29 29 30 30 28 26 22 17 18
18 19 20 21 21 22 23 24 25 26 27 29 30 32 33 34 35 35 36 37 36 36 35 34 34 32 32 33 34 34 33 31 29 30 31 31 31 32 34 36 37 38 38 39 40 40 40 39 38 38 39 39 39 40 39 39 39 40 40 41 41 42 41 39 36 33 30 27 26 27 25 26 28 27 24 25 26 28 31 31 29 28 25 21 20
18 18 18 18 19 19 21 22 24 25 26 28 29 30 32 33 34 35 36 37 37 38 38 37 37 35 33 33 34 35 35 32 28 29 30 29 29 30 32 34 36 38 40 40 41 42 42 41 40 40 40 40 40 40 39 39 39 39 40 41 41 42 43 44 43 41 38 33 30 30 32 30 30 30 28 26 26 27 29 29 30 30 27 26 29
17 16 16 16 17 18 20 22 23 25 26 27 28 29 30 32 33 33 35 36 36 37 37 37 37 35 33 32 34 36 35 31 28 28 28 27 28 29 30 32 34 36 38 39 40 40 40 40 40 41 41 40 39 38 38 38 38 38 38 38 39 40 41 42 44 44 43 41 37 37 40 37 34 35 33 28 27 29 29 29 30 31 31 33 37
15 14 14 15 16 18 20 22 23 25 26 27 28 30 30 31 32 32 33 34 34 34 34 35 35 35 33 33 35 37 34 29 27 28 28 28 29 29 28 30 32 35 37 37 37 38 39 40 41 42 42 43 42 41 40 40 40 40 40 39 40 40 40 41 42 43 43 43 42 42 45 44 42 41 38 32 30 32 31 31 32 33 34 35 36
13 13 13 15 17 19 20 22 24 25 27 28 29 30 30 30 31 32 33 33 33 32 32 33 33 34 35 34 35 37 35 29 28 29 29 29 29 27 27 29 31 34 36 37 38 40 40 41 41 41 41 41 41 39 38 38 39 39 39 39 40 40 41 42 43 44 44 44 44 45 46 47 46 45 43 38 34 33 32 31 30 30 28 25 25
11 12 15 16 18 19 20 22 24 25 26 28 29 30 30 31 31 31 32 34 33 32 33 34 33 33 34 34 34 37 37 31 28 29 29 28 28 27 27 28 29 31 33 34 35 36 37 38 38 39 40 40 40 38 37 37 38 38 37 37 36 37 38 40 40 42 43 45 46 47 48 50 49 47 46 43 39 36 31 27 26 27 23 16 15
11 13 16 17 18 19 20 22 23 25 26 27 29 30 30 31 32 30 31 33 34 33 34 35 34 32 32 33 33 34 36 32 28 29 29 28 27 27 27 27 28 29 30 31 30 30 32 32 32 34 37 38 38 39 39 38 39 39 38 38 37 37 38 40 40 39 39 39 42 45 47 49 50 48 47 45 43 38 34 31 30 28 23 17 15
12 14 16 17 18 19 21 22 23 24 26 27 28 29 30 31 31 30 30 32 34 34 33 34 35 32 32 34 33 32 34 34 29 28 29 27 27 28 28 28 29 29 28 29 29 29 29 30 31 32 34 36 36 36 36 36 37 37 36 34 34 34 36 38 39 39 38 37 38 39 41 44 46 47 46 45 44 41 39 37 35 30 25 23 22
13 15 16 17 19 20 21 22 23 24 26 27 28 28 29 30 30 31 31 32 33 33 32 32 34 34 33 33 33 31 33 34 30 28 29 29 28 29 29 29 29 29 29 30 31 31 31 31 31 31 32 34 35 35 35 35 36 37 37 35 34 35 36 34 34 35 37 37 38 38 38 40 42 44 44 43 43 42 40 40 39 36 31 28 26
14 15 17 18 19 20 21 21 23 24 25 26 28 28 28 29 30 30 31 32 31 31 31 32 33 34 33 32 32 32 32 32 31 29 29 29 28 28 30 30 30 32 33 32 32 31 29 28 28 29 30 32 33 34 34 34 34 36 37 37 39 42 42 40 39 38 36 36 37 38 38 39 39 40 40 40 40 40 40 41 41 40 36 33 30
15 16 17 19 20 21 21 21 23 24 25 26 28 29 29 28 29 29 30 31 30 30 31 31 31 32 32 31 32 32 31 31 31 30 29 29 29 28 30 31 31 32 33 31 30 29 30 30 30 31 32 34 35 35 36 36 36 37 38 39 39 41 42 43 43 42 39 37 36 36 36 37 37 37 37 38 38 39 39 40 42 42 41 41 38
15 16 18 20 21 21 22 22 23 24 25 25 27 29 30 29 28 29 29 29 29 28 29 30 30 31 32 31 32 32 32 32 32 31 30 30 30 29 30 30 30 31 32 31 31 31 32 32 32 33 34 34 35 35 36 36 36 37 39 40 40 40 41 41 40 39 39 38 36 35 35 36 36 36 36 37 38 38 38 39 40 42 42 42 43
15 17 19 20 21 22 22 23 24 24 24 25 26 28 30 29 28 28 28 27 27 27 28 29 28 28 30 32 32 33 33 33 34 33 31 30 30 30 30 29 29 30 32 33 34 34 34 34 34 35 35 35 36 36 36 35 35 36 37 38 38 38 37 36 35 34 33 34 34 34 35 37 37 36 37 37 37 37 38 37 38 40 40 40 40
16 18 20 21 22 23 23 24 24 24 23 24 25 27 29 29 28 28 28 27 26 27 28 28 27 28 28 30 32 34 35 35 34 34 32 30 31 30 30 30 30 31 32 34 35 35 35 35 36 35 35 36 36 35 34 33 33 33 34 35 35 35 34 33 33 33 30 29 30 32 35 38 38 39 39 38 36 34 33 34 35 35 36 36 37
17 19 20 21 22 23 24 24 24 24 24 23 24 26 28 28 27 28 28 27 26 27 28 28 27 27 27 29 31 33 33 32 31 31 32 32 33 34 33 33 32 32 33 34 34 35 36 37 37 36 36 36 34 33 34 33 33 33 33 33 33 33 33 32 31 31 29 28 30 32 36 37 37 38 38 35 33 32 31 31 31 31 31 31 31
17 19 21 22 22 22 23 24 25 25 25 24 25 26 27 26 26 27 28 28 27 26 27 27 26 26 27 29 30 30 30 30 29 30 32 33 34 35 34 34 33 33 33 34 36 37 39 39 38 36 36 35 34 33 33 32 32 32 32 32 32 32 32 32 32 33 34 34 34 36 38 38 35 34 34 32 32 33 32 30 28 27 29 29 26
17 20 21 22 22 22 23 24 25 25 25 25 25 26 28 27 26 26 28 29 28 28 28 28 29 29 28 28 28 29 31 31 30 31 32 32 33 33 31 31 31 31 31 34 37 37 37 36 35 34 34 34 33 31 30 30 30 31 32 32 32 33 32 32 32 34 36 38 36 36 38 37 32 30 31 31 31 32 31 30 28 27 27 25 21
18 20 21 21 22 23 23 24 24 25 26 26 25 26 27 27 26 27 28 29 28 29 31 31 30 30 29 28 28 28 29 30 31 32 33 33 34 35 33 32 31 29 30 33 33 31 28 28 27 27 27 28 27 26 27 28 28 29 30 31 31 32 31 30 30 31 33 34 34 34 34 33 29 27 26 26 29 31 31 30 29 27 25 23 20
18 20 21 21 22 23 23 24 24 24 25 25 26 28 29 27 25 24 27 28 28 28 28 29 30 30 29 28 27 27 28 31 32 34 34 34 34 35 35 33 32 31 31 32 29 26 23 22 23 23 23 24 24 24 24 25 26 27 29 30 31 31 30 29 29 30 30 31 31 31 32 31 28 25 24 24 25 28 29 30 30 27 24 21 20
18 20 21 22 23 22 22 23 24 24 24 24 25 26 29 32 31 26 23 24 26 27 28 27 27 27 26 27 28 28 30 31 32 32 33 34 34 34 34 34 33 33 32 29 25 22 20 19 20 23 24 24 25 26 26 26 27 27 27 28 29 30 30 29 29 30 29 29 29 29 29 30 29 27 25 25 25 25 27 28 28 26 24 22 20
18 20 21 22 22 21 21 22 23 23 24 24 24 24 25 29 34 35 30 25 23 25 26 25 24 23 24 26 29 30 30 31 31 32 32 32 33 34 34 34 32 31 29 26 22 21 21 20 21 24 25 25 27 30 30 29 29 28 26 25 26 29 32 31 31 30 30 28 26 26 25 25 25 24 23 24 24 24 24 24 25 24 23 22 21
18 20 20 21 21 21 21 21 22 22 23 24 25 25 24 23 27 33 38 36 31 25 21 18 19 23 27 29 29 29 30 30 30 31 32 31 31 33 34 32 28 25 25 23 20 21 22 22 23 25 26 27 29 31 31 31 31 30 29 27 28 30 33 34 32 30 29 28 25 24 24 23 21 20 19 20 22 21 21 22 23 23 22 20 19
17 18 18 18 18 20 20 20 21 22 23 23 23 24 24 24 24 26 30 35 37 35 31 26 22 23 28 31 30 28 29 30 30 31 32 31 31 31 31 28 24 23 23 21 19 20 21 21 23 25 27 28 31 31 31 32 32 31 30 30 30 30 31 32 31 29 27 26 25 23 23 22 20 19 19 20 20 19 20 21 22 22 20 19 18
16 16 16 16 16 18 19 20 21 22 23 23 23 23 23 24 25 24 24 25 27 31 36 38 36 31 28 28 28 28 29 30 31 30 30 29 29 28 26 23 21 22 23 22 20 20 20 20 23 25 27 28 31 32 32 33 34 33 30 29 28 28 27 27 28 28 27 25 24 23 22 21 19 18 18 19 19 18 17 18 21 21 21 20 18
15 16 16 16 16 17 18 19 20 21 21 22 22 23 23 23 24 24 24 23 23 25 29 35 40 39 32 26 26 30 31 30 30 29 28 27 26 25 21 19 19 20 20 20 20 21 21 21 22 24 26 27 29 31 32 33 35 34 31 27 26 25 25 25 26 26 26 25 24 24 23 23 21 20 19 18 18 19 19 19 19 20 20 20 19
14 16 16 16 16 17 18 18 18 19 19 20 21 22 23 23 23 23 23 23 23 25 26 29 33 37 36 32 31 32 32 29 28 27 25 25 24 22 19 18 19 19 19 20 21 22 23 24 24 25 26 27 27 28 29 30 32 32 30 27 25 25 25 26 27 27 26 25 25 24 23 23 22 21 20 18 17 18 20 22 22 22 22 21 19
14 14 15 15 16 16 17 18 18 18 18 19 20 21 21 22 22 22 22 22 22 23 25 26 26 28 32 35 37 36 32 30 29 28 27 26 25 24 22 21 20 19 20 21 21 21 23 26 26 26 27 28 27 27 28 29 30 30 29 27 25 25 26 26 26 26 26 25 25 25 24 23 22 22 22 21 18 17 18 19 20 21 21 21 19
14 14 14 14 14 14 16 17 18 19 19 19 19 19 20 21 21 21 21 22 22 22 24 24 24 24 27 31 35 34 32 30 30 30 30 28 26 26 25 24 22 22 22 23 23 23 24 26 27 27 27 27 27 26 27 28 28 28 28 27 24 23 23 24 24 24 24 24 24 24 23 23 23 22 22 21 20 20 19 18 17 16 16 18 19
13 14 14 14 14 15 16 17 18 19 19 19 20 20 19 20 20 21 22 22 22 22 23 23 24 26 27 28 29 29 28 27 27 28 28 28 27 27 26 24 24 24 24 25 26 26 26 27 27 28 28 28 27 27 27 27 27 27 26 25 23 22 21 20 20 21 22 22 23 23 22 21 21 21 20 20 21 21 21 20 20 20 19 19 20
13 14 14 15 15 15 15 16 17 18 18 19 20 20 20 20 20 21 22 22 21 22 23 23 24 26 26 25 25 25 24 24 25 26 26 26 26 26 25 25 25 25 26 26 27 27 27 28 28 28 28 28 28 27 26 26 26 25 25 24 23 22 21 19 16 16 16 18 18 19 20 21 20 20 20 22 21 21 20 20 21 21 21 19 18
12 13 14 14 14 14 15 16 16 17 18 18 19 19 19 20 20 21 21 21 21 22 22 23 25 26 26 24 23 23 23 22 23 24 24 25 25 25 25 26 26 26 26 26 27 27 27 28 28 28 28 28 28 28 27 28 28 26 25 24 24 23 22 21 19 16 14 14 13 13 13 15 17 18 18 19 19 19 19 18 18 18 18 17 18
11 12 13 13 13 13 13 14 15 16 16 17 17 18 18 18 19 20 20 21 21 21 21 23 25 26 26 25 23 23 24 25 24 25 25 25 26 26 26 27 27 27 26 26 26 26 27 27 27 27 27 27 27 27 27 27 27 27 26 26 25 24 23 23 21 18 15 12 10 8 7 7 9 10 11 12 14 15 15 15 16 16 16 16 17
11 11 12 12 12 13 13 13 14 15 15 15 15 16 16 17 18 19 19 19 20 20 20 21 23 24 25 26 25 25 26 26 26 25 26 26 27 27 27 28 28 28 27 27 27 27 27 27 27 28 28 28 28 27 26 26 25 25 26 25 24 24 23 22 20 18 14 10 7 4 1 0 1 3 5 7 10 12 12 13 15 15 15 16 16
10 11 11 11 12 12 13 13 14 14 15 16 16 16 16 16 17 17 18 18 19 19 20 20 21 22 23 25 25 25 25 26 26 26 26 26 27 28 28 28 28 28 27 27 27 27 28 28 28 28 29 30 30 29 27 26 25 24 24 23 22 21 21 19 17 15 12 8 5 3 4 5 5 6 7 8 10 11 12 13 14 14 15 15 15
9 10 11 11 12 12 13 13 14 14 15 16 16 17 17 16 16 17 17 17 17 18 19 20 21 21 22 24 24 25 25 25 26 26 26 26 27 27 28 28 28 27 27 27 27 27 28 28 28 29 29 29 30 30 29 28 25 23 23 22 20 19 18 16 14 12 9 7 5 4 6 8 9 9 10 10 11 12 13 13 14 14 14 14 14
10 10 10 10 11 12 12 12 13 14 15 15 16 16 16 17 16 16 16 16 17 17 19 20 21 21 22 23 23 24 24 24 24 25 26 26 26 27 27 27 27 27 27 27 27 27 28 28 29 29 29 29 29 28 28 29 28 25 23 21 20 19 17 15 12 10 8 6 5 5 8 10 12 12 12 13 14 14 14 14 14 14 15 15 14
10 10 10 10 10 11 11 12 13 13 14 15 15 16 16 16 16 16 16 16 17 17 18 20 20 21 22 23 23 24 24 24 24 25 25 26 26 26 26 26 26 27 27 27 27 27 28 28 29 29 29 30 30 29 28 28 28 28 25 22 20 18 16 14 12 10 9 7 7 8 10 12 14 14 14 15 15 16 16 16 16 16 16 15 15
10 10 11 11 10 10 11 11 12 13 13 14 15 15 16 16 16 16 16 16 17 17 18 19 20 21 21 22 23 24 24 24 24 25 25 25 25 25 25 26 26 26 26 27 27 26 27 27 28 29 29 29 30 30 29 28 28 28 27 24 20 18 16 14 13 11 10 9 10 11 13 15 16 17 17 17 17 18 18 18 17 18 18 17 16
9 10 11 11 11 10 11 11 11 12 12 13 14 15 16 16 16 16 16 17 17 17 17 18 19 19 20 21 22 23 23 24 24 24 25 25 24 24 24 24 25 25 25 26 26 26 26 26 27 28 29 29 30 29 29 29 28 27 25 23 21 19 18 16 14 12 12 12 13 14 15 17 18 18 18 19 19 19 19 19 19 19 19 19 18
9 10 10 11 11 11 11 11 11 12 12 13 14 14 15 16 16 16 16 16 17 17 17 18 18 18 19 19 20 21 21 22 23 23 23 24 24 23 23 23 23 24 24 24 24 25 25 25 25 26 27 28 29 29 29 28 27 26 24 23 22 20 19 17 15 14 14 13 15 16 17 18 20 20 19 20 20 20 20 20 20 20 20 21 20
Wind_Direction
45 43 41 37 32 29 22 15 14 9 6 4 360 357 354 350 348 346 346 347 346 345 345 346 346 345 343 342 341 340 339 339 339 337 335 332 330 328 326 326 324 323 321 319 318 317 312 308 304 301 300 299 297 295 294 292 289 284 278 273 267 264 259 253 257 269 267 264 264 264 262 260 257 255 254 254 254 253 251 250 250 249 247 246 245
41 37 34 29 22 18 11 4 2 358 355 353 350 348 345 343 342 340 340 341 341 340 339 339 339 338 337 335 335 334 332 332 332 331 329 327 325 324 322 321 319 317 316 314 313 314 311 307 305 304 302 298 295 294 293 292 291 285 280 275 269 266 262 256 257 266 270 267 265 264 262 257 256 255 253 253 253 254 253 251 249 248 248 248 247
27 19 15 12 6 4 1 355 351 349 347 345 343 341 339 338 336 335 335 334 334 334 333 332 332 331 330 329 328 327 326 325 325 324 323 321 320 319 317 315 313 311 310 309 308 308 307 304 302 303 303 298 294 293 291 289 288 284 281 276 271 269 265 260 257 260 268 270 265 262 261 258 257 257 255 255 254 252 251 251 249 248 248 247 246
340 343 345 347 348 351 351 347 343 342 339 336 334 333 333 332 332 332 331 329 328 328 326 326 326 325 324 324 323 321 320 319 319 317 316 315 314 313 312 310 309 307 305 303 302 301 301 299 298 298 297 293 291 290 289 287 284 281 279 276 272 269 267 262 258 258 263 268 264 259 259 258 259 260 258 256 253 250 248 248 246 245 244 243 244
306 310 313 317 325 333 335 333 334 333 330 328 327 328 329 329 329 329 329 328 326 325 324 323 322 321 319 318 316 315 314 314 313 312 311 311 310 308 308 306 305 305 304 301 299 297 295 293 293 294 292 288 286 286 284 282 280 277 275 273 271 269 267 263 260 258 258 262 263 261 257 255 257 259 257 254 251 248 246 245 244 243 242 242 242
291 288 290 295 306 319 329 333 334 334 332 330 330 329 329 328 328 328 328 327 325 323 322 321 320 319 316 314 312 310 309 308 307 307 307 307 307 306 305 303 302 302 301 300 298 295 292 290 289 288 287 284 283 283 282 279 276 273 270 270 268 267 265 263 261 259 257 259 263 262 256 252 251 252 253 252 250 246 243 242 242 241 241 241 241
310 302 303 315 323 328 333 335 335 334 332 330 329 327 325 325 325 325 325 323 322 321 320 318 316 315 313 312 311 309 308 306 304 303 303 304 304 303 302 302 301 300 298 297 295 293 290 288 287 285 282 280 280 280 279 277 274 271 269 267 266 264 263 261 260 258 257 260 262 261 257 253 249 248 250 250 249 246 240 236 237 238 237 238 239
350 341 333 330 328 327 329 330 330 329 327 326 325 323 322 322 322 321 320 320 319 318 317 315 313 312 311 310 310 309 307 306 304 304 304 304 302 300 299 298 297 297 296 295 293 291 288 287 285 284 281 278 277 277 277 276 274 272 269 267 263 260 259 259 258 257 257 259 261 261 259 255 249 245 244 240 238 240 236 230 234 237 235 235 237
341 336 333 330 329 328 329 329 328 327 326 326 325 324 324 323 322 321 320 319 318 316 315 314 312 311 311 310 310 309 307 304 304 306 306 305 303 301 298 296 295 293 292 292 290 288 287 285 284 282 281 279 278 276 276 274 272 270 270 268 263 259 257 256 255 255 255 257 260 260 258 255 248 239 232 228 228 236 236 231 235 239 237 237 239
336 334 332 330 328 327 326 325 325 325 325 326 325 324 323 323 322 322 321 319 318 317 315 314 312 311 311 311 309 308 306 304 304 306 306 304 303 302 300 298 295 292 290 288 286 285 284 283 283 282 281 279 277 276 275 274 271 268 268 267 264 259 255 253 252 251 252 254 257 258 255 254 251 240 232 233 233 235 234 228 232 237 233 236 244
330 330 327 325 323 321 319 318 318 319 320 320 319 319 319 319 320 319 318 318 317 316 315 314 313 312 311 309 307 305 303 303 305 306 305 303 303 302 301 298 295 292 290 287 286 284 283 282 282 281 280 278 277 276 276 274 272 269 268 268 265 261 256 252 250 249 249 250 254 255 252 253 254 248 241 240 235 231 231 229 228 230 224 224 243
325 324 322 320 319 318 318 317 317 317 317 316 316 317 317 317 317 316 316 316 315 314 314 313 312 312 312 310 308 306 304 305 307 306 303 303 302 300 297 295 292 289 288 286 285 285 284 283 281 279 278 277 277 277 276 274 272 271 270 269 267 265 261 256 253 249 247 247 250 252 250 252 257 254 245 242 235 228 229 228 226 226 224 225 235
321 320 319 318 318 319 318 317 316 316 316 316 315 315 315 315 316 316 315 315 314 313 313 313 313 314 315 313 310 308 307 309 310 308 305 304 302 298 295 292 289 286 285 284 284 283 283 283 282 280 279 277 277 276 275 274 274 273 272 271 269 267 264 261 258 255 251 248 248 251 252 252 256 256 251 245 238 228 225 225 225 226 226 229 236
319 320 320 318 317 316 315 314 315 314 315 316 315 315 316 316 316 316 315 315 314 313 313 314 314 315 316 314 312 310 310 313 313 311 309 308 304 299 295 290 287 285 283 282 282 282 282 282 282 281 281 279 278 278 277 277 277 276 274 271 269 267 266 264 261 258 255 251 248 251 254 253 254 256 255 250 242 234 227 225 226 226 228 235 241
320 321 318 315 313 314 315 315 316 316 317 317 317 317 318 317 317 317 316 314 313 313 313 313 313 314 314 314 312 309 310 314 314 312 311 309 305 301 294 289 285 283 282 281 280 281 281 281 281 282 281 281 280 279 278 277 277 276 274 272 270 268 266 264 262 259 257 254 251 251 254 255 255 256 256 252 247 245 242 239 237 235 234 238 243
319 316 311 312 313 315 317 318 318 319 319 319 319 319 318 317 317 317 315 313 312 312 311 311 312 312 312 313 311 308 309 312 312 310 310 308 305 302 296 291 288 284 283 282 281 281 280 279 280 281 281 281 280 279 277 276 275 273 271 269 268 267 265 264 263 262 260 259 257 256 257 258 258 257 255 252 249 250 250 247 242 236 233 235 240
312 307 307 311 314 317 319 319 319 319 319 318 317 317 317 316 316 316 315 312 311 311 310 310 310 310 310 311 310 308 308 311 311 309 308 306 304 302 297 293 289 287 286 287 286 285 282 280 279 279 279 279 279 280 281 283 283 282 279 276 273 270 267 266 265 264 262 262 261 261 261 262 261 260 258 255 252 249 245 241 235 229 226 228 237
305 304 308 313 315 318 319 318 318 317 316 316 315 315 315 314 314 314 312 309 309 309 310 309 309 309 309 309 309 307 306 309 310 307 305 304 303 300 297 294 292 291 291 292 291 291 288 285 284 282 280 279 279 279 280 280 281 281 280 279 276 272 270 269 268 268 266 264 262 261 261 261 261 260 258 256 253 246 238 235 234 229 224 225 234
304 306 311 314 316 318 319 317 317 316 315 314 314 313 312 311 311 311 309 307 307 307 309 308 308 309 309 308 308 306 305 308 309 306 304 303 301 299 296 293 291 292 293 294 294 295 294 293 291 289 286 285 283 282 280 278 278 278 280 280 277 272 270 268 267 267 267 266 263 261 259 258 258 257 256 253 251 245 238 237 237 231 226 229 233
306 309 313 316 317 318 318 317 317 316 314 314 313 311 310 309 309 309 308 307 306 306 307 307 307 308 309 309 308 307 306 307 308 306 304 302 301 300 297 293 292 293 295 295 294 294 293 293 293 292 291 289 287 286 284 280 278 276 275 276 276 276 277 277 273 269 266 264 263 261 260 258 256 256 254 252 249 245 239 237 236 232 229 230 231
310 313 315 317 317 317 318 317 317 316 315 314 312 309 309 308 308 308 308 307 306 306 307 308 307 308 308 308 307 307 307 307 306 305 303 301 301 299 296 293 292 293 292 290 290 291 293 294 295 295 294 292 291 289 288 285 282 278 272 267 266 268 272 274 274 274 272 268 263 260 259 258 255 254 251 249 247 244 239 235 234 233 230 229 230
313 315 316 316 316 317 318 318 318 317 316 315 312 309 310 310 309 309 308 307 306 306 307 309 308 306 307 306 306 306 308 308 306 303 301 300 300 299 295 293 293 292 291 289 289 291 293 293 293 293 292 291 290 288 287 285 285 284 281 277 274 272 270 268 267 268 268 267 264 259 255 253 252 251 248 244 243 242 238 234 233 233 232 231 231
314 314 316 316 317 319 320 320 319 318 317 316 312 310 311 311 310 309 308 306 306 307 308 309 306 304 304 304 305 307 309 308 305 301 299 299 300 299 297 296 295 294 292 291 291 292 292 291 290 289 289 288 287 286 285 284 281 280 279 280 281 281 280 277 271 265 262 260 260 256 252 249 247 247 245 242 240 239 237 235 233 233 233 233 234
313 315 316 317 318 320 321 320 319 318 318 317 313 311 311 311 310 310 308 306 306 307 306 306 303 300 300 302 304 306 306 305 304 302 298 297 299 300 298 298 298 296 294 292 292 292 291 289 288 287 288 288 289 290 290 290 287 283 280 280 280 282 284 284 281 275 266 258 254 252 249 246 244 244 244 243 242 240 238 236 235 233 233 234 235
314 315 316 318 320 321 320 319 319 318 318 317 313 310 310 309 308 309 308 307 307 305 302 300 298 296 296 297 300 302 303 303 302 302 301 298 296 296 294 294 295 295 293 292 291 291 291 291 292 294 294 294 294 292 292 290 287 285 283 282 281 281 283 286 286 283 275 265 259 255 250 246 243 242 244 244 244 242 237 234 235 234 233 235 237
314 316 317 319 320 321 320 319 320 319 318 316 313 310 309 307 306 307 307 306 304 300 296 295 294 292 293 294 296 298 301 301 301 303 304 301 297 295 291 289 289 289 288 288 288 289 290 291 292 292 291 290 289 287 287 286 285 285 286 285 283 282 282 283 283 281 277 272 268 264 258 251 244 241 241 241 239 237 234 232 231 230 229 231 233
316 316 318 320 321 322 321 319 319 318 317 316 314 311 310 307 304 304 304 304 301 295 292 291 291 289 290 292 294 296 300 302 303 304 303 300 296 293 289 287 287 285 283 283 284 285 286 287 287 287 286 286 285 284 284 285 285 286 287 286 284 281 279 278 277 277 276 272 267 265 264 259 248 239 235 232 231 233 232 228 226 225 225 224 226
317 317 319 320 321 322 321 319 319 317 316 316 314 312 311 309 304 302 303 301 295 289 285 286 287 289 291 292 296 299 302 304 305 305 304 301 299 298 295 293 290 286 283 283 282 281 281 281 281 281 280 280 279 278 278 280 282 283 284 283 283 281 279 278 276 276 277 274 265 261 263 260 248 233 227 224 224 228 228 224 223 224 222 217 219
318 319 320 321 321 322 321 320 319 317 316 315 314 313 312 309 303 301 303 301 293 287 287 289 290 292 294 296 300 301 302 304 307 307 306 305 305 306 304 301 300 296 292 291 291 290 287 282 279 279 279 279 279 279 279 280 280 280 280 280 281 280 278 277 276 277 281 281 270 258 256 257 248 232 223 219 221 224 224 220 219 221 218 212 214
319 320 321 321 320 321 321 321 320 318 316 316 315 315 316 312 305 300 299 299 295 290 291 293 296 299 300 301 303 302 301 304 307 308 308 308 309 309 308 307 308 307 304 305 307 305 299 294 291 291 290 290 289 287 285 283 280 278 278 279 278 278 276 274 275 277 282 286 281 265 253 250 248 241 230 222 220 221 219 217 216 216 212 207 211
318 319 321 320 321 322 321 320 320 319 317 317 316 315 316 318 318 313 304 299 299 298 297 297 298 301 304 306 308 307 306 307 309 309 310 311 312 311 310 310 311 311 312 316 318 314 308 306 304 303 302 299 295 292 290 288 285 282 281 279 278 278 276 274 275 277 278 285 289 280 259 244 241 240 233 223 219 217 214 213 213 212 209 209 212
316 317 319 320 322 322 320 320 320 318 318 320 319 316 315 317 321 323 320 312 304 301 301 303 305 307 310 312 313 313 311 312 313 313 313 313 313 311 310 311 312 314 317 322 321 315 312 310 306 304 302 298 294 293 292 289 287 284 281 277 276 277 277 276 277 278 277 280 286 287 275 256 241 236 230 222 217 214 208 205 206 206 207 209 213
317 317 319 321 322 321 320 319 319 318 319 319 319 318 317 315 316 319 322 323 322 317 310 307 310 314 317 318 318 317 315 316 317 318 317 317 315 314 314 315 316 317 320 321 316 309 307 304 300 299 298 295 295 295 293 290 288 285 281 277 274 275 277 278 278 277 275 275 276 280 282 272 255 246 240 231 222 213 204 200 201 202 203 205 210
318 318 320 320 319 318 318 318 318 318 319 318 317 316 317 316 314 313 317 323 328 329 325 321 318 320 321 322 321 321 321 322 323 322 321 322 322 321 322 322 322 322 322 320 311 302 300 298 297 298 298 298 297 297 295 293 291 287 282 278 275 273 274 276 277 274 273 273 273 275 279 277 265 254 246 237 227 218 208 201 199 198 200 203 206
320 321 323 321 318 316 317 318 318 319 320 319 318 316 316 316 315 313 313 316 319 320 321 321 322 324 325 324 325 326 326 326 326 326 327 329 331 331 332 331 328 326 325 321 313 306 302 300 300 302 303 303 302 301 300 298 297 293 286 279 275 272 271 271 272 272 271 270 270 270 272 274 271 263 252 237 221 211 206 204 201 199 200 201 203
323 325 325 324 321 318 318 320 321 322 320 317 317 317 317 316 314 312 313 314 313 313 314 317 321 325 329 330 331 331 331 330 330 332 333 335 338 342 342 336 331 328 326 324 321 316 312 309 308 309 309 308 307 306 305 304 304 301 292 281 274 271 268 265 265 267 269 268 267 265 263 263 263 263 261 249 227 211 205 204 203 204 203 201 201
327 327 327 328 325 322 321 322 322 321 318 316 316 318 318 317 316 314 314 315 316 315 315 317 322 327 330 334 337 336 334 332 333 335 338 340 343 346 343 335 329 326 323 322 321 318 314 314 314 313 312 311 308 307 308 309 312 311 304 289 275 268 266 265 263 262 263 264 264 263 259 257 255 251 249 248 238 222 211 205 202 204 206 205 202
330 330 330 329 326 323 322 322 323 323 321 319 321 322 320 318 317 316 317 318 318 317 317 320 324 326 327 331 336 338 337 336 338 341 343 345 345 344 340 333 328 324 320 319 320 317 314 314 315 314 313 311 308 308 311 313 313 316 316 306 287 273 268 266 264 263 262 260 260 259 256 255 254 246 238 234 231 226 221 214 205 200 198 199 200
331 333 334 334 330 326 324 324 326 327 326 325 327 327 323 320 320 320 321 322 320 319 320 322 324 326 328 331 335 338 340 342 342 342 342 343 344 343 340 336 331 327 323 321 321 319 316 315 316 316 316 316 314 314 317 317 315 317 321 318 307 291 280 271 266 264 262 258 257 256 253 250 248 240 232 227 223 219 215 212 208 200 192 191 197
333 336 340 342 338 332 331 332 332 330 328 329 330 329 325 322 322 323 325 324 321 321 323 323 325 329 332 333 336 340 342 341 339 337 337 338 339 340 339 337 333 329 326 325 325 325 322 319 319 320 320 321 321 321 320 320 320 319 320 322 321 314 304 294 283 275 270 264 258 253 249 247 243 235 227 226 227 221 210 204 205 205 200 198 200
335 338 342 344 341 338 340 339 336 332 331 332 332 329 326 325 326 327 326 324 321 322 324 325 326 332 335 335 339 344 344 338 336 337 337 337 337 338 338 338 336 333 332 331 331 331 328 325 324 325 324 324 326 326 324 324 325 324 323 324 326 325 324 323 318 308 298 289 276 261 250 244 239 233 228 226 225 221 214 208 205 203 201 199 195
337 339 341 343 344 343 343 340 335 334 335 335 333 330 327 327 329 328 326 324 324 324 324 326 330 335 339 339 341 346 347 343 341 341 341 340 341 341 340 341 341 340 339 339 338 337 334 332 331 330 329 329 331 331 331 331 332 331 331 332 332 333 336 339 340 335 328 321 311 295 274 254 242 235 231 226 219 212 207 202 197 192 187 183 179
337 339 341 342 344 345 343 338 336 336 336 334 331 330 330 330 330 329 328 327 327 327 327 328 332 337 341 345 347 350 352 351 348 346 345 344 345 344 344 345 346 346 347 347 347 344 341 338 338 338 338 339 339 339 339 340 339 340 342 344 344 343 344 347 347 344 339 335 331 321 304 280 254 236 225 215 203 193 186 180 176 172 169 166 164
336 338 339 341 345 346 344 341 339 337 337 335 333 334 336 335 333 334 333 330 330 331 331 332 335 338 342 348 352 354 354 353 351 349 348 347 347 347 347 348 349 351 353 354 355 354 350 346 346 347 350 353 353 352 351 351 351 350 351 352 350 349 349 350 350 347 343 341 342 343 342 290 218 194 182 175 168 161 156 156 155 154 153 153 152
333 336 337 340 344 345 345 344 343 342 342 341 340 341 343 340 338 337 336 334 334 335 336 337 340 341 343 347 351 353 352 352 351 350 349 348 348 349 350 351 352 354 357 359 0 0 358 355 352 352 355 359 2 3 2 1 1 1 1 359 354 351 351 349 347 345 344 346 357 39 95 111 118 122 123 130 137 138 137 140 143 142 143 146 148
330 333 335 338 341 343 344 344 344 345 346 345 342 341 342 341 340 339 338 338 338 338 338 341 344 345 346 348 350 351 351 351 351 350 350 350 350 351 352 353 355 358 1 4 6 6 6 3 0 358 356 358 2 5 6 7 7 6 7 6 1 355 352 351 350 351 355 2 22 64 89 98 105 112 116 121 125 127 127 130 134 136 137 139 142
325 328 331 334 337 339 340 342 344 344 344 343 340 339 338 339 339 339 340 340 340 339 340 344 347 348 349 350 350 351 351 352 352 352 353 353 353 354 356 357 359 1 4 8 10 12 12 10 8 6 4 3 2 3 7 10 11 11 11 10 7 2 358 357 359 5 13 24 46 75 90 94 97 103 109 114 117 117 118 120 123 126 129 132 135
320 322 325 327 330 331 335 339 342 341 339 338 337 336 336 336 337 338 339 341 342 342 344 347 349 350 351 351 351 352 353 353 354 356 358 359 360 1 1 2 2 3 5 9 13 15 16 15 14 13 12 10 8 7 7 8 11 13 14 13 11 8 7 8 13 20 31 45 62 81 92 96 99 101 105 108 111 112 111 112 115 118 121 124 127
314 315 317 318 320 324 328 332 335 335 335 333 332 332 334 334 334 336 338 339 341 344 345 347 349 351 351 352 352 353 354 355 356 359 0 2 4 5 5 6 7 7 8 10 12 15 17 18 17 16 15 15 14 13 12 11 11 12 14 15 16 16 18 21 26 33 44 58 72 84 92 95 97 100 102 105 107 109 108 108 111 114 114 114 116
308 309 310 310 313 317 321 325 328 330 331 329 326 327 329 330 330 333 336 338 340 343 345 347 348 350 350 351 351 352 353 355 357 358 360 2 4 6 7 8 10 10 11 12 14 16 18 19 19 18 17 17 17 16 16 16 16 15 14 16 18 21 26 32 39 45 55 68 79 86 92 95 96 97 100 102 104 105 105 106 108 110 110 109 109
304 304 304 305 308 312 315 319 322 324 325 325 324 323 323 324 326 330 333 335 337 340 342 343 345 347 349 349 349 350 351 353 355 357 0 2 4 6 7 8 9 10 11 13 15 17 19 21 21 20 19 18 18 18 18 18 19 19 18 19 22 25 30 36 44 52 61 72 81 86 91 94 95 95 97 100 101 102 102 104 106 108 108 107 109